SONATE (44400 NORAD) Tracking and Keplerian Element Data

This shows tracking and keplerian element data for the satellite.

Feedback or suggestion? Click here.




ElementValue
Catalog44400
NameSONATE
Epoch Orbit29210
Epoch Day286.45820243
Epoch Year2024
RAAN286.4849
Inclination97.7163
Eccentricity0.0016078
Argument of Perigee56.1715
Mean Anonmoly304.106
Mean Motion15.43094716
Decay Rate0.00056535
L11 44400U 19038Q 24286.45820243 .00056535 00000-0 12674-2 0 9999
L22 44400 97.7163 286.4849 0016078 56.1715 304.1060 15.43094716292103



Live tracking and technical data element details for SONATE (NORAD 44400). SONATE can be tracked NOW for your location showing map with azimuth and elevation plus other details from your city location.







IsCatalogInMostPopularTable: catalog: 44400, numindb: 289
Update: records affected: 1



GetName: 44400 SONATE

Hit Count: updated at: Thu, 23 Jan 2025 17:26:10 GMT